This is the latest recevied weather packets stored in our database for station/object 9M4RLD-3. If no packets are shown the sender has not sent any weather packets the latest 10 day(s).
| Time | Temp. | Humidity | Pressure | Rain* | Wind** | Luminosity | Snow |
|---|---|---|---|---|---|---|---|
| 1777775468 | 26.67° C | 100% | 1034.2 hPa | - | - | - | - |
| 1777774320 | 26.11° C | 100% | 1034.1 hPa | - | - | - | - |
| 1777774268 | 26.11° C | 100% | 1034.1 hPa | - | - | - | - |
| 1777773068 | 26.67° C | 100% | 1034 hPa | - | - | - | - |
| 1777771868 | 27.22° C | 100% | 1033.7 hPa | - | - | - | - |
| 1777770668 | 26.11° C | 100% | 1033.7 hPa | - | - | - | - |
| 1777769467 | 26.11° C | 100% | 1033.4 hPa | - | - | - | - |
| 1777768267 | 25° C | 100% | 1032.9 hPa | - | - | - | - |
| 1777767067 | 24.44° C | 100% | 1032.7 hPa | - | - | - | - |
| 1777765867 | 24.44° C | 100% | 1032.4 hPa | - | - | - | - |
| 1777764667 | 22.78° C | 100% | 1032.2 hPa | - | - | - | - |
| 1777763467 | 22.78° C | 100% | 1031.9 hPa | - | - | - | - |
| 1777762267 | 22.22° C | 100% | 1031.8 hPa | - | - | - | - |
| 1777761067 | 22.22° C | 100% | 1031.6 hPa | - | - | - | - |
| 1777759867 | 22.22° C | 100% | 1031.5 hPa | - | - | - | - |
| 1777758667 | 22.78° C | 100% | 1031.6 hPa | - | - | - | - |
| 1777757467 | 22.78° C | 100% | 1031.5 hPa | - | - | - | - |
| 1777756267 | 22.78° C | 100% | 1031.5 hPa | - | - | - | - |
| 1777755067 | 22.22° C | 100% | 1031.6 hPa | - | - | - | - |
| 1777753867 | 22.78° C | 100% | 1031.8 hPa | - | - | - | - |
| 1777752667 | 22.78° C | 100% | 1032 hPa | - | - | - | - |
| 1777751467 | 22.78° C | 100% | 1032 hPa | - | - | - | - |
| 1777750267 | 22.78° C | 100% | 1032.1 hPa | - | - | - | - |
| 1777749067 | 22.78° C | 100% | 1032.2 hPa | - | - | - | - |
| 1777747866 | 22.78° C | 100% | 1032.4 hPa | - | - | - | - |
* Rain since midnight (hover to see other rain measurements)
** Current wind speed in m/s (hover to see current wind gust speed)